Wind_Speed
30 30 31 27 20 21 21 15 15 22 26 23 21 22 27 34 38 41 45 45 43 43 42 41 39 36 35 34 33 31 30 28 28 29 30 30 30 31 32 32 31 29 28 27 27 26 25 25 25 24 23 21 20 19 19 17 17 17 17 17 18 19 20
35 34 31 25 20 20 18 15 21 26 22 18 18 18 21 27 33 40 47 49 47 45 44 45 44 41 39 38 37 36 34 32 31 32 33 33 33 33 34 34 33 32 30 30 30 30 29 28 27 26 25 24 23 22 22 21 20 20 21 21 21 21 21
38 36 30 24 21 21 21 23 26 24 19 19 19 17 19 23 28 34 41 46 47 47 47 49 49 46 44 42 41 40 39 36 35 35 35 35 35 35 35 36 36 35 33 33 33 33 31 30 30 29 28 27 26 25 25 24 23 23 24 24 24 24 24
40 37 30 25 26 28 27 27 26 23 21 21 20 18 18 19 22 27 34 39 44 49 52 52 52 50 48 46 44 43 42 41 41 39 37 37 37 36 37 37 38 37 36 36 36 35 34 33 32 32 31 30 29 28 28 27 26 26 27 26 27 27 27
42 37 31 30 33 33 31 28 26 25 23 21 19 16 16 16 18 22 26 31 38 47 53 55 54 53 51 49 47 46 45 44 44 43 41 40 39 38 38 39 39 39 39 39 38 38 37 36 35 35 35 34 32 30 30 29 28 29 29 28 28 29 29
43 40 39 38 39 38 34 30 28 27 24 20 17 13 14 16 16 18 21 24 32 42 48 53 56 55 53 52 50 49 48 47 47 46 45 43 42 41 40 40 41 40 40 40 40 39 38 38 38 38 38 36 34 33 32 31 31 31 30 29 30 30 30
47 47 46 44 43 42 37 32 30 28 25 21 17 16 18 18 17 19 20 21 30 38 42 48 55 56 56 55 53 52 52 51 50 48 47 46 45 45 43 42 42 42 42 42 40 39 39 39 40 40 40 38 37 35 33 33 33 32 31 31 31 31 31
54 52 50 47 44 43 38 34 33 32 29 27 25 24 24 21 17 19 20 21 30 37 38 41 47 53 56 57 56 56 56 55 53 51 49 49 48 48 48 46 44 43 43 42 41 41 41 41 41 41 41 40 39 37 36 36 35 33 33 33 33 32 32
58 56 52 48 45 45 42 40 38 37 36 35 32 31 27 21 18 19 21 22 28 37 39 38 40 45 51 56 59 59 58 58 57 55 52 51 51 51 51 50 48 46 45 43 43 43 43 43 43 42 42 41 40 39 38 38 37 35 35 35 35 33 33
60 57 54 51 51 51 48 45 43 42 42 40 37 35 29 22 21 21 20 22 28 37 42 40 38 39 42 49 57 60 61 60 59 57 55 54 53 52 53 53 52 50 48 46 46 45 45 44 44 43 43 42 42 41 40 39 38 37 37 37 36 35 34
62 58 57 58 58 57 51 48 47 45 45 44 41 37 28 23 24 22 20 24 29 34 42 43 40 38 37 41 48 55 60 62 61 59 58 58 56 55 55 56 55 53 52 51 50 48 47 46 45 45 44 43 43 42 41 41 40 38 38 38 38 37 35
64 61 61 62 62 58 54 52 51 48 48 48 44 37 31 31 29 23 24 29 28 31 40 44 42 39 36 36 39 44 52 59 62 62 61 60 60 59 58 57 56 55 54 55 54 52 51 49 48 47 46 45 44 43 43 42 41 40 40 40 40 39 38
67 64 64 66 66 63 59 58 56 54 53 51 47 41 38 37 32 28 32 33 27 28 36 41 42 40 37 35 34 37 42 50 57 62 63 64 63 62 62 61 60 58 57 56 56 55 55 53 52 51 50 49 47 46 45 45 44 43 43 42 42 42 42
70 68 68 69 70 68 65 63 60 58 57 54 51 47 44 41 36 36 37 34 28 28 33 36 39 40 40 38 35 35 38 41 47 55 62 66 67 66 65 64 63 62 61 59 58 57 57 56 55 55 53 53 51 49 48 48 47 47 46 45 45 45 45
72 72 71 73 74 72 70 68 64 62 59 56 53 51 48 44 41 41 40 35 32 32 33 34 37 39 42 42 39 38 38 38 41 46 53 62 67 68 68 67 66 66 65 63 61 59 58 58 58 58 58 57 56 54 52 51 50 50 49 49 48 48 48
75 76 77 77 77 76 75 71 65 61 59 57 55 54 52 48 46 45 41 35 35 37 36 36 38 40 42 43 42 42 40 40 40 41 45 52 59 66 70 70 68 67 68 67 65 62 61 60 60 60 61 61 60 58 56 55 55 53 52 52 51 50 50
77 80 81 80 80 82 78 68 61 61 61 59 59 59 57 53 51 48 42 38 41 42 39 37 39 40 41 42 43 43 42 41 41 40 41 44 49 56 63 68 70 70 70 70 69 67 65 64 63 63 64 63 63 62 60 59 58 56 55 55 54 53 53
81 84 85 83 83 83 74 64 64 66 65 64 64 63 61 58 55 51 46 45 46 44 41 41 42 42 42 42 41 40 40 41 41 41 42 43 45 48 53 59 66 71 73 73 73 72 70 68 67 67 66 65 65 65 63 61 60 58 59 58 57 56 55
87 88 90 87 85 80 71 69 72 72 70 71 71 68 65 62 58 53 50 48 47 46 46 46 46 45 43 41 39 39 40 41 41 42 44 45 46 47 49 52 58 65 71 75 76 76 74 72 71 70 69 68 68 67 65 63 61 61 61 60 59 59 58
91 92 93 91 85 78 74 76 77 76 78 78 74 69 66 62 58 55 53 51 50 50 49 48 48 47 44 41 41 41 42 44 43 43 44 47 48 49 51 52 54 59 65 70 75 77 78 77 75 73 72 72 71 70 68 66 64 64 63 62 61 61 60
94 94 95 92 86 81 79 81 81 81 81 79 74 71 67 63 61 58 55 54 54 53 52 52 52 51 48 47 45 43 44 45 45 45 45 47 49 51 52 53 54 56 59 63 69 75 78 79 78 76 76 76 76 74 72 69 68 68 66 64 62 62 62
97 96 96 93 89 85 83 84 83 82 80 79 77 74 70 66 63 60 58 57 57 57 56 55 54 54 54 53 49 46 46 47 47 47 48 49 50 51 53 54 55 56 57 59 63 69 74 77 79 79 80 80 79 78 75 73 72 71 69 66 65 64 64
100 98 96 94 91 88 85 86 85 82 80 80 80 78 74 68 64 62 62 61 60 60 60 59 57 57 58 56 53 51 50 50 49 50 50 51 51 51 52 54 55 57 58 58 59 63 67 71 76 80 82 82 82 80 78 76 75 74 72 69 69 68 68
102 98 96 96 94 90 87 87 87 82 80 81 83 81 75 69 66 66 66 65 64 63 63 62 60 60 60 59 59 57 55 54 53 51 51 52 52 51 51 53 55 57 58 59 59 60 61 64 70 75 79 82 82 82 80 79 78 76 75 73 74 74 73
104 101 99 98 96 93 90 90 89 85 82 84 85 82 76 72 72 71 69 68 68 67 66 65 63 63 62 62 62 61 59 57 55 53 53 53 52 51 51 52 53 56 57 59 59 60 60 62 64 68 72 76 79 81 82 81 80 79 79 79 79 79 77
107 104 102 100 99 96 93 93 91 88 86 86 87 84 80 77 76 75 74 72 71 70 70 69 66 65 65 65 64 64 63 61 58 56 56 55 53 52 52 52 53 55 56 57 58 59 60 60 62 64 66 69 73 78 81 81 81 81 82 83 83 83 81
110 107 104 102 100 98 96 95 94 90 89 90 89 85 82 80 79 78 77 76 75 74 73 72 70 68 67 67 67 67 66 64 61 59 58 57 56 54 54 54 55 55 56 57 57 58 59 60 61 62 63 65 67 71 75 77 80 82 84 85 86 86 85
112 109 106 102 100 99 98 96 95 92 90 90 89 87 84 82 82 82 81 80 79 78 76 74 73 71 70 70 70 69 69 66 63 62 61 59 59 58 57 57 57 57 58 58 58 59 60 60 61 62 63 63 63 64 66 70 73 77 81 84 86 87 87
113 111 108 105 102 101 100 98 95 93 92 90 88 87 85 83 82 83 84 84 83 81 80 78 77 75 74 74 73 72 71 69 66 65 64 62 61 61 60 59 59 59 60 60 60 60 61 61 62 63 63 63 62 61 62 64 66 70 74 79 83 85 87
116 114 111 109 105 100 99 99 96 91 90 89 88 86 85 86 86 86 85 87 87 86 83 79 79 79 77 77 77 75 73 71 69 67 66 65 64 63 62 62 61 61 62 62 62 61 61 61 62 62 62 62 61 60 60 61 62 65 68 73 77 81 83
119 117 113 112 108 97 91 92 92 91 87 80 75 73 70 71 79 85 87 88 90 91 90 84 81 81 81 80 80 78 76 74 71 70 69 68 66 65 63 63 62 62 62 64 64 63 62 62 62 61 60 59 59 59 59 59 60 62 64 67 71 74 77
123 121 117 116 111 98 89 86 82 81 79 68 56 53 50 49 58 69 78 84 86 86 89 87 82 82 84 83 82 81 78 76 73 71 70 68 67 66 64 63 63 62 61 63 64 65 64 63 62 61 59 57 57 57 57 58 59 60 62 63 65 68 71
126 123 120 119 110 94 88 90 82 75 75 70 59 51 47 46 50 56 65 76 80 79 80 81 80 80 83 85 84 83 80 78 75 72 70 68 66 65 63 62 62 62 61 62 63 64 64 63 62 61 59 58 57 57 57 58 58 59 60 61 62 64 66
126 124 122 121 110 88 80 90 93 83 80 82 78 66 53 48 51 56 62 69 75 77 78 79 79 79 80 82 83 83 82 79 75 71 69 67 65 64 63 63 63 63 63 63 63 64 64 63 62 62 61 59 58 57 57 56 56 56 57 58 59 59 61
124 122 118 120 116 93 78 86 96 88 80 82 83 77 67 59 58 64 70 72 73 74 76 78 79 80 80 81 81 80 79 76 73 71 69 67 66 66 66 65 65 64 64 64 64 64 63 63 63 63 62 60 59 58 57 56 55 53 53 53 54 54 56
117 116 114 115 115 99 84 87 94 89 80 74 70 69 69 66 63 66 72 74 74 74 74 75 77 80 82 83 82 79 76 73 71 70 69 67 67 68 67 66 65 65 65 65 65 64 64 63 63 63 62 60 59 59 58 56 54 52 51 50 49 48 47
110 110 109 109 108 101 93 91 92 91 86 77 70 68 65 61 60 64 69 73 75 76 75 73 73 74 75 76 77 77 76 73 71 70 68 67 67 67 67 66 66 65 65 65 65 65 65 64 64 64 62 60 59 58 57 56 53 52 51 49 45 41 38
Wind_Direction
245 244 246 247 245 249 252 253 252 250 251 248 246 245 240 236 235 231 229 229 226 224 229 235 236 232 228 227 230 231 233 233 232 231 227 223 220 218 216 215 215 212 210 210 212 214 215 215 217 220 224 228 230 234 238 241 245 251 256 259 258 255 252
246 246 246 247 247 251 254 253 252 253 257 259 252 248 243 234 232 231 228 225 224 222 225 230 233 233 231 227 226 228 230 231 233 234 232 228 225 223 221 220 220 218 215 216 218 219 220 221 224 226 229 232 235 237 241 244 246 250 254 258 260 260 258
247 248 248 250 250 253 254 253 253 258 262 263 257 252 248 236 230 234 233 228 226 224 223 227 230 232 233 230 227 226 227 229 231 233 234 233 230 227 226 224 224 223 221 221 222 224 225 227 229 231 233 237 239 240 243 244 246 248 251 255 258 259 260
247 250 250 252 253 252 252 252 255 259 258 259 260 258 258 245 233 236 237 232 230 227 224 225 227 229 231 232 231 228 226 227 230 232 232 234 234 232 230 229 228 227 227 226 227 228 228 230 232 235 237 239 241 243 245 245 246 248 250 252 255 257 259
247 250 251 251 252 250 250 251 253 255 254 257 263 265 269 259 241 239 239 236 234 231 227 226 227 227 229 231 233 233 230 228 228 231 232 233 235 235 234 233 232 231 230 230 231 231 231 232 234 237 239 240 242 244 245 245 245 247 249 251 253 255 257
248 248 247 245 246 247 247 248 251 253 256 261 267 270 270 263 251 245 241 241 243 236 229 228 227 227 228 230 232 234 235 232 229 229 232 234 235 236 236 236 236 235 234 234 233 233 234 236 237 239 241 241 241 242 243 244 245 247 248 250 252 254 255
247 246 245 244 244 247 248 250 253 256 260 265 268 266 261 254 248 247 243 247 252 244 234 230 229 227 227 228 229 231 234 236 234 230 230 233 236 237 237 237 237 238 239 238 237 237 238 238 239 241 243 243 242 242 242 243 245 247 248 249 251 253 254
247 248 248 247 247 250 252 254 255 258 261 262 260 257 254 249 247 249 246 249 257 254 245 237 233 229 228 228 228 230 232 235 236 234 231 231 234 237 238 238 238 239 241 242 241 241 241 240 240 242 244 245 245 244 244 244 246 248 249 250 251 252 254
248 250 251 251 253 255 256 257 257 258 258 257 255 253 251 249 249 251 247 246 255 260 255 245 238 234 231 229 228 230 231 233 235 236 235 233 233 235 237 239 238 238 240 242 243 243 243 243 243 243 245 247 247 247 247 247 248 249 250 251 251 252 254
248 250 251 251 251 251 252 253 254 254 254 253 250 249 247 247 249 251 248 241 245 256 260 254 246 241 237 233 230 230 232 234 234 236 237 237 237 236 237 239 240 239 239 240 241 243 244 245 245 246 247 248 249 249 249 249 250 250 251 252 252 253 254
245 247 248 249 248 248 247 248 248 249 250 250 248 246 245 248 249 248 248 242 237 247 258 261 255 246 242 241 236 233 233 235 236 236 237 239 240 240 240 240 240 241 241 241 240 241 243 245 246 247 248 248 250 250 250 250 251 252 253 253 254 255 256
244 245 247 249 250 249 249 249 249 249 251 251 250 247 246 249 248 247 252 250 242 241 250 259 262 256 249 247 245 240 237 236 236 237 237 238 240 241 242 243 242 242 242 243 243 242 242 243 245 247 248 249 250 251 252 252 252 252 253 254 256 258 258
244 244 246 248 250 249 249 249 249 249 251 251 251 249 248 249 247 246 251 252 247 245 249 256 263 265 260 254 251 249 245 240 237 237 237 238 238 239 240 242 244 243 242 242 244 245 245 245 245 245 247 248 250 250 252 253 254 254 254 255 257 259 260
244 244 245 247 249 248 248 248 247 248 249 251 251 250 249 249 247 246 250 253 251 250 251 254 259 264 265 262 257 253 248 244 241 238 236 237 237 238 239 239 241 243 243 242 242 243 246 247 248 247 247 247 248 249 250 252 254 255 256 257 257 258 260
243 244 245 246 247 248 247 247 247 247 249 251 252 253 252 251 250 250 252 255 254 251 250 251 253 255 260 262 261 257 252 246 243 241 239 238 238 238 239 239 240 242 244 244 242 242 243 245 247 249 249 248 248 248 248 250 252 254 255 257 258 259 260
242 244 245 245 246 247 246 246 247 249 251 253 254 255 254 252 251 251 251 253 254 252 249 249 250 251 255 258 260 260 258 253 248 245 243 242 240 239 240 241 241 242 244 245 245 243 243 243 244 246 248 249 249 249 248 248 249 251 253 255 257 259 260
242 244 245 245 246 247 247 248 250 252 253 253 253 253 253 252 251 251 251 251 252 251 249 249 250 251 253 254 255 257 259 259 257 253 249 246 244 243 241 241 242 242 243 245 246 245 244 243 244 245 246 248 249 249 249 249 249 250 251 253 254 256 258
242 243 245 245 245 247 249 251 251 251 250 250 250 250 250 250 250 250 250 250 252 254 254 252 250 249 250 252 253 254 256 258 259 258 255 251 248 245 243 241 241 241 242 243 244 245 245 244 244 245 246 247 248 249 249 250 250 251 252 252 253 254 255
241 242 244 244 245 247 249 249 249 250 249 248 246 246 246 248 249 251 251 252 254 256 256 255 253 251 250 251 251 251 253 255 256 256 255 253 251 248 245 242 241 240 241 241 242 243 244 244 244 245 246 247 248 249 250 250 250 251 252 253 253 254 255
241 242 243 244 244 245 245 246 247 249 249 248 247 247 248 249 250 252 253 254 255 256 256 257 257 255 253 252 251 249 250 253 254 254 254 253 251 250 248 245 243 241 240 241 242 242 243 243 243 244 246 247 247 248 249 250 250 250 251 252 253 254 255
241 242 243 244 244 243 243 244 246 248 250 251 252 251 251 250 250 251 252 253 254 255 255 256 257 258 257 254 252 250 250 251 252 253 254 252 250 249 249 248 247 245 242 242 242 242 243 243 243 243 244 246 247 247 247 248 249 250 251 251 252 254 255
242 242 243 243 243 242 242 243 245 247 250 253 254 254 252 251 251 252 252 253 253 254 254 254 255 256 257 256 255 253 251 250 250 250 252 252 250 249 249 250 250 249 247 245 244 244 244 244 244 244 244 245 246 247 247 248 248 249 251 252 252 253 254
242 242 242 243 243 243 243 244 245 246 248 251 253 253 252 251 252 253 253 253 253 253 254 255 255 255 256 257 257 255 253 251 250 249 250 251 251 250 250 251 251 251 250 248 247 246 246 245 245 244 245 246 247 248 248 249 249 250 250 251 252 253 253
242 242 242 243 244 243 243 244 245 245 246 249 251 252 252 252 252 252 252 252 253 253 254 254 255 255 255 256 257 256 256 254 252 251 251 250 250 251 253 253 253 253 253 251 250 248 248 247 246 245 245 246 246 247 248 249 250 251 251 252 252 252 253
242 242 242 243 244 244 244 244 245 245 245 247 249 251 251 251 251 251 251 251 252 252 253 253 253 254 254 254 255 256 257 257 255 254 252 251 250 251 253 254 255 255 255 255 255 253 251 249 248 248 247 246 247 247 248 248 249 250 251 252 252 253 253
243 242 242 243 243 244 244 244 245 245 245 246 248 249 250 251 251 252 252 252 251 252 252 253 253 253 253 253 254 255 256 258 257 256 255 253 252 251 252 253 254 255 255 256 256 257 256 254 252 250 249 247 247 247 248 248 248 249 250 251 252 253 254
243 243 242 242 243 243 244 244 245 245 245 246 247 248 249 250 252 252 252 252 252 252 252 253 253 253 253 252 252 254 255 257 258 258 258 257 255 254 253 252 253 254 254 254 254 255 257 257 256 254 253 250 248 247 248 248 249 249 250 251 252 254 255
244 244 243 243 243 243 244 244 245 245 246 246 248 249 249 249 251 252 253 253 252 252 252 252 253 252 252 252 252 252 255 256 257 258 259 259 259 257 255 254 253 253 253 253 252 252 253 254 255 255 255 254 252 251 250 249 249 249 250 251 252 253 254
244 244 244 243 243 243 244 244 244 245 246 248 249 249 250 250 250 251 253 253 253 253 252 252 252 252 251 251 251 251 253 255 256 257 258 258 259 259 259 258 256 255 255 254 253 252 252 252 252 253 253 253 254 253 253 252 251 250 249 250 251 252 253
242 243 243 244 244 244 244 244 244 244 245 246 248 250 253 254 253 252 253 254 254 254 253 251 251 250 250 250 250 250 251 252 254 255 256 257 258 259 260 260 260 260 259 258 255 254 253 252 252 253 253 253 252 252 252 253 252 251 251 250 251 251 252
241 242 242 243 243 242 243 244 243 243 243 244 247 252 254 256 256 253 252 252 253 252 250 249 249 249 248 248 248 249 250 251 252 254 255 256 257 258 259 260 260 261 262 262 260 258 256 255 255 255 255 255 254 252 251 251 251 251 251 250 251 251 252
239 240 240 242 241 240 241 242 239 238 239 238 238 240 240 242 250 252 248 248 250 250 248 247 247 246 245 246 247 248 249 250 251 253 254 255 257 259 259 259 259 259 260 261 261 261 260 259 259 259 259 258 256 254 251 250 249 249 249 250 251 252 252
237 238 239 240 239 235 235 239 236 232 232 228 221 219 223 229 238 245 245 245 247 248 248 247 245 243 242 243 245 246 247 249 250 251 253 254 256 258 257 257 258 258 258 258 259 260 260 260 261 262 261 260 258 255 252 250 249 249 250 250 251 252 253
234 235 236 238 237 229 226 234 238 234 232 230 224 219 222 227 229 233 239 242 243 244 245 245 244 243 242 242 243 244 246 247 249 250 251 252 253 254 254 256 257 257 257 257 258 258 259 260 261 262 262 262 261 259 257 255 253 251 251 252 253 254 254
231 232 233 235 235 229 222 229 236 235 232 232 228 223 225 229 229 231 236 241 243 244 244 244 243 243 242 243 245 246 246 247 248 249 250 250 251 252 253 255 255 255 256 257 257 258 258 259 260 260 261 262 262 262 261 260 258 256 256 256 256 254 253
228 229 229 231 233 229 221 223 230 232 229 226 221 216 219 224 228 232 236 240 242 242 243 244 243 243 243 245 246 246 246 247 247 248 248 249 249 251 253 253 252 252 253 254 256 257 257 257 258 258 259 260 260 261 262 262 262 262 261 259 258 256 255
225 225 226 227 228 228 224 221 224 227 227 221 213 209 212 217 225 231 235 238 240 241 242 244 245 243 243 245 245 245 246 247 247 247 248 248 248 250 250 250 249 250 250 251 253 254 255 256 256 256 257 258 258 259 261 262 264 265 264 262 262 261 259
Height
10856 10857 10858 10861 10865 10866 10867 10872 10874 10870 10869 10876 10882 10885 10887 10891 10897 10901 10904 10908 10913 10914 10914 10914 10917 10921 10922 10924 10925 10927 10928 10929 10931 10932 10933 10935 10936 10938 10940 10942 10943 10946 10948 10950 10951 10952 10954 10955 10955 10957 10959 10961 10963 10964 10965 10966 10967 10968 10969 10969 10970 10970 10971
10850 10852 10855 10859 10862 10863 10866 10869 10867 10865 10869 10875 10878 10880 10883 10887 10891 10891 10894 10899 10904 10910 10911 10909 10910 10914 10916 10918 10920 10922 10924 10926 10928 10928 10929 10931 10933 10935 10937 10939 10941 10943 10945 10947 10948 10949 10950 10952 10953 10954 10956 10958 10960 10962 10962 10963 10964 10965 10966 10966 10967 10968 10968
10845 10848 10853 10857 10859 10860 10862 10862 10861 10864 10869 10871 10873 10876 10878 10882 10886 10886 10889 10896 10901 10905 10905 10903 10904 10908 10910 10913 10916 10918 10920 10923 10924 10924 10926 10928 10930 10932 10934 10936 10938 10940 10942 10944 10945 10947 10948 10949 10950 10951 10953 10955 10957 10958 10959 10960 10961 10962 10963 10963 10964 10965 10965
10841 10845 10851 10855 10855 10855 10856 10857 10859 10862 10865 10867 10869 10873 10875 10879 10883 10884 10886 10892 10894 10895 10896 10896 10899 10902 10905 10908 10911 10913 10916 10918 10919 10920 10923 10924 10926 10928 10930 10932 10934 10936 10939 10941 10942 10944 10945 10946 10947 10948 10950 10951 10953 10955 10956 10957 10958 10958 10959 10960 10961 10962 10963
10838 10843 10848 10850 10849 10849 10852 10854 10856 10858 10860 10863 10866 10870 10872 10875 10878 10880 10882 10885 10885 10885 10888 10891 10893 10897 10900 10904 10906 10909 10911 10914 10915 10917 10919 10921 10923 10925 10927 10929 10931 10933 10935 10937 10939 10941 10942 10944 10945 10945 10946 10948 10950 10951 10952 10953 10954 10955 10956 10957 10957 10958 10959
10836 10839 10841 10842 10842 10844 10847 10850 10852 10854 10857 10860 10863 10867 10868 10870 10873 10875 10877 10879 10876 10876 10881 10885 10888 10892 10896 10899 10902 10904 10906 10908 10911 10913 10916 10918 10919 10921 10923 10925 10927 10929 10931 10933 10935 10938 10939 10941 10942 10942 10943 10944 10946 10948 10949 10950 10950 10951 10952 10953 10954 10955 10956
10829 10830 10831 10835 10837 10839 10843 10847 10849 10851 10853 10857 10861 10863 10863 10865 10869 10870 10873 10875 10870 10868 10874 10878 10882 10886 10890 10894 10898 10899 10900 10902 10905 10909 10912 10914 10916 10917 10919 10921 10923 10925 10927 10929 10932 10935 10936 10937 10938 10938 10939 10941 10942 10944 10945 10946 10946 10947 10949 10950 10950 10951 10952
10819 10821 10825 10830 10833 10835 10839 10844 10846 10848 10850 10853 10855 10857 10858 10861 10865 10867 10870 10871 10866 10863 10867 10872 10875 10881 10885 10889 10892 10894 10895 10897 10900 10903 10907 10909 10911 10913 10914 10917 10919 10921 10923 10926 10929 10931 10932 10933 10934 10935 10936 10937 10939 10941 10942 10942 10943 10944 10945 10946 10946 10948 10949
10812 10815 10819 10826 10830 10831 10834 10838 10840 10843 10845 10846 10849 10851 10854 10859 10862 10864 10866 10869 10865 10860 10860 10865 10870 10875 10879 10883 10886 10888 10890 10892 10895 10898 10902 10905 10906 10908 10910 10912 10915 10917 10920 10922 10925 10926 10927 10929 10930 10932 10933 10934 10935 10937 10938 10939 10940 10941 10942 10942 10943 10944 10945
10807 10811 10815 10818 10819 10819 10824 10829 10832 10835 10836 10839 10843 10846 10851 10856 10858 10859 10863 10865 10863 10857 10854 10859 10864 10869 10873 10877 10880 10884 10886 10888 10891 10894 10898 10900 10902 10904 10906 10907 10910 10913 10916 10919 10920 10921 10923 10925 10926 10928 10929 10930 10931 10933 10934 10935 10936 10937 10938 10938 10939 10940 10942
10800 10804 10806 10805 10805 10808 10817 10822 10824 10827 10829 10832 10836 10841 10848 10852 10853 10856 10859 10859 10859 10857 10852 10852 10857 10863 10868 10871 10875 10880 10882 10884 10888 10891 10894 10896 10897 10900 10901 10902 10906 10909 10912 10914 10915 10917 10919 10920 10922 10923 10924 10926 10927 10929 10930 10931 10932 10933 10934 10935 10935 10936 10938
10792 10797 10798 10797 10797 10803 10811 10815 10817 10820 10822 10824 10831 10839 10844 10845 10848 10853 10853 10851 10855 10856 10851 10849 10851 10857 10864 10868 10871 10875 10878 10880 10883 10887 10890 10892 10893 10895 10896 10898 10900 10904 10907 10908 10910 10913 10914 10916 10917 10918 10920 10921 10923 10925 10926 10927 10928 10929 10930 10931 10932 10932 10934
10784 10788 10790 10788 10789 10795 10801 10804 10809 10812 10814 10818 10825 10833 10836 10839 10844 10847 10844 10845 10851 10853 10851 10849 10850 10852 10857 10863 10867 10869 10871 10873 10876 10880 10883 10885 10886 10888 10890 10892 10894 10897 10900 10903 10905 10907 10909 10911 10913 10914 10915 10917 10919 10921 10921 10922 10924 10924 10925 10927 10928 10928 10929
10774 10777 10780 10780 10779 10784 10789 10794 10800 10803 10806 10812 10819 10824 10828 10832 10838 10839 10838 10842 10848 10849 10848 10849 10849 10849 10850 10854 10859 10861 10863 10865 10868 10871 10874 10875 10878 10881 10883 10886 10887 10889 10891 10895 10899 10901 10903 10906 10908 10909 10910 10911 10913 10915 10917 10918 10919 10920 10921 10923 10924 10924 10924
10763 10766 10769 10768 10767 10773 10779 10784 10791 10796 10801 10808 10813 10818 10821 10826 10830 10831 10833 10839 10842 10843 10844 10846 10846 10846 10844 10846 10850 10853 10856 10859 10861 10864 10866 10868 10871 10874 10876 10879 10882 10883 10884 10887 10892 10896 10898 10900 10901 10902 10903 10905 10907 10909 10912 10913 10913 10915 10916 10917 10919 10919 10919
10753 10754 10755 10756 10758 10762 10767 10776 10787 10795 10800 10805 10808 10810 10813 10818 10821 10823 10829 10836 10836 10835 10838 10840 10840 10841 10840 10841 10843 10845 10849 10853 10856 10859 10861 10862 10865 10867 10869 10873 10877 10879 10879 10880 10884 10888 10891 10893 10894 10895 10895 10897 10899 10902 10905 10906 10907 10910 10912 10912 10913 10914 10914
10744 10742 10740 10747 10750 10747 10757 10777 10790 10793 10794 10798 10799 10800 10803 10808 10812 10816 10824 10830 10827 10827 10831 10834 10833 10834 10836 10836 10837 10840 10843 10847 10850 10854 10856 10857 10859 10860 10862 10866 10869 10871 10873 10874 10876 10879 10882 10885 10887 10887 10887 10889 10891 10893 10896 10898 10901 10905 10906 10906 10908 10909 10908
10735 10730 10728 10737 10738 10739 10760 10781 10782 10779 10783 10787 10786 10788 10793 10798 10803 10810 10816 10819 10819 10822 10825 10826 10826 10827 10829 10831 10834 10838 10840 10841 10844 10846 10848 10850 10851 10852 10854 10856 10858 10861 10863 10864 10866 10869 10872 10876 10877 10878 10880 10882 10883 10885 10888 10892 10896 10898 10899 10899 10901 10902 10903
10722 10719 10717 10724 10729 10743 10763 10768 10762 10765 10770 10768 10770 10777 10783 10790 10797 10804 10809 10812 10815 10817 10817 10818 10818 10820 10823 10826 10830 10833 10835 10835 10837 10839 10840 10842 10843 10844 10846 10847 10848 10850 10851 10854 10857 10859 10862 10865 10867 10869 10872 10874 10875 10877 10881 10885 10888 10890 10890 10892 10894 10895 10896
10707 10708 10707 10712 10726 10745 10755 10750 10749 10753 10751 10751 10760 10770 10778 10787 10794 10799 10803 10807 10808 10809 10810 10811 10811 10813 10818 10821 10823 10826 10829 10829 10831 10832 10834 10835 10836 10837 10838 10839 10840 10842 10844 10846 10848 10850 10852 10855 10859 10862 10864 10865 10866 10869 10873 10876 10879 10880 10881 10884 10886 10887 10888
10693 10697 10697 10705 10721 10736 10739 10737 10739 10740 10739 10745 10756 10764 10773 10782 10788 10792 10798 10800 10801 10802 10804 10804 10804 10807 10810 10812 10816 10820 10822 10823 10825 10826 10827 10828 10829 10830 10831 10832 10834 10835 10838 10840 10840 10841 10843 10847 10851 10855 10855 10855 10856 10859 10863 10867 10869 10870 10873 10877 10879 10879 10880
10677 10682 10687 10696 10710 10722 10727 10728 10731 10735 10738 10743 10747 10754 10764 10774 10781 10787 10792 10794 10794 10795 10795 10797 10799 10800 10801 10804 10809 10813 10814 10815 10817 10819 10819 10820 10822 10824 10825 10826 10828 10829 10831 10833 10834 10834 10836 10840 10844 10846 10847 10847 10848 10851 10855 10859 10861 10862 10866 10869 10871 10871 10871
10659 10669 10678 10687 10696 10708 10717 10719 10722 10731 10737 10737 10737 10742 10753 10766 10776 10781 10783 10785 10786 10787 10787 10789 10792 10793 10794 10797 10801 10804 10805 10808 10810 10811 10813 10814 10815 10817 10819 10820 10821 10822 10823 10825 10827 10828 10830 10832 10834 10836 10837 10838 10840 10844 10848 10851 10852 10855 10859 10862 10862 10862 10862
10646 10659 10669 10676 10683 10696 10707 10709 10713 10725 10732 10731 10727 10732 10746 10761 10768 10769 10772 10775 10777 10778 10780 10781 10783 10785 10787 10789 10792 10795 10797 10799 10802 10804 10806 10808 10810 10811 10813 10814 10815 10815 10816 10818 10820 10822 10824 10825 10824 10826 10829 10831 10834 10838 10840 10843 10845 10848 10851 10853 10851 10850 10852
10633 10646 10656 10664 10671 10684 10695 10699 10705 10716 10724 10722 10720 10727 10742 10751 10754 10756 10762 10765 10767 10769 10770 10772 10775 10777 10779 10781 10784 10786 10789 10791 10794 10797 10798 10801 10804 10806 10807 10808 10809 10809 10809 10811 10812 10813 10816 10817 10818 10819 10822 10825 10828 10829 10831 10835 10839 10841 10841 10841 10839 10839 10842
10617 10630 10643 10653 10661 10672 10683 10688 10695 10706 10713 10713 10714 10723 10734 10739 10741 10746 10751 10754 10757 10760 10761 10763 10767 10770 10772 10774 10776 10778 10781 10783 10786 10788 10790 10793 10797 10800 10801 10801 10802 10802 10803 10804 10805 10805 10807 10809 10811 10812 10815 10818 10820 10820 10823 10827 10831 10832 10831 10830 10830 10830 10833
10602 10615 10628 10640 10650 10660 10670 10677 10684 10694 10701 10703 10707 10717 10726 10730 10733 10736 10740 10744 10748 10750 10753 10754 10757 10761 10763 10765 10767 10769 10772 10775 10778 10780 10782 10784 10787 10791 10793 10794 10795 10795 10796 10797 10799 10799 10799 10800 10802 10803 10806 10809 10811 10813 10816 10820 10822 10823 10823 10822 10822 10822 10824
10587 10599 10614 10628 10640 10650 10658 10666 10675 10684 10690 10694 10700 10709 10717 10722 10725 10726 10728 10732 10736 10740 10744 10746 10747 10751 10754 10755 10758 10761 10763 10767 10770 10771 10773 10775 10777 10780 10782 10784 10786 10787 10788 10790 10791 10792 10793 10793 10793 10794 10796 10799 10802 10806 10809 10811 10813 10815 10814 10813 10813 10814 10815
10574 10586 10600 10612 10626 10637 10645 10654 10665 10674 10681 10687 10692 10699 10706 10712 10717 10718 10717 10719 10723 10728 10734 10737 10739 10742 10744 10746 10749 10751 10754 10757 10761 10762 10764 10767 10768 10769 10771 10773 10776 10778 10779 10781 10783 10784 10785 10785 10786 10787 10788 10791 10795 10798 10799 10801 10803 10805 10805 10803 10804 10805 10806
10562 10573 10585 10596 10611 10625 10632 10641 10654 10664 10672 10680 10687 10693 10699 10703 10706 10709 10709 10708 10710 10715 10721 10727 10729 10731 10733 10736 10738 10741 10744 10748 10751 10753 10755 10757 10759 10761 10762 10763 10765 10767 10768 10771 10774 10775 10776 10777 10778 10780 10782 10785 10788 10790 10792 10793 10794 10795 10795 10795 10795 10795 10796
10551 10561 10573 10584 10600 10616 10622 10628 10641 10652 10662 10676 10685 10691 10696 10696 10692 10694 10698 10698 10697 10700 10705 10712 10717 10719 10722 10724 10726 10730 10735 10738 10741 10744 10746 10748 10750 10752 10754 10755 10756 10757 10758 10759 10762 10765 10768 10769 10771 10773 10775 10778 10780 10783 10785 10786 10787 10786 10786 10787 10787 10787 10789
10539 10549 10562 10572 10588 10609 10616 10617 10627 10640 10654 10672 10682 10685 10689 10690 10684 10680 10683 10685 10686 10687 10691 10697 10704 10707 10709 10712 10715 10720 10725 10729 10733 10736 10737 10740 10742 10743 10745 10747 10748 10750 10751 10751 10752 10755 10758 10760 10763 10765 10768 10770 10771 10773 10775 10777 10778 10778 10778 10779 10779 10780 10781
10527 10538 10552 10561 10576 10600 10611 10608 10614 10628 10642 10658 10670 10672 10674 10678 10677 10674 10673 10673 10675 10679 10681 10686 10692 10695 10697 10701 10704 10709 10714 10720 10724 10727 10730 10732 10734 10735 10737 10738 10739 10742 10744 10745 10746 10747 10749 10752 10755 10757 10758 10760 10761 10762 10764 10766 10768 10769 10769 10770 10770 10771 10772
10515 10527 10542 10552 10565 10588 10602 10599 10601 10614 10626 10637 10652 10661 10662 10663 10665 10665 10663 10662 10665 10669 10672 10675 10680 10683 10685 10689 10693 10698 10705 10710 10715 10719 10722 10724 10726 10728 10729 10730 10731 10733 10735 10737 10739 10741 10742 10745 10747 10748 10749 10750 10751 10752 10754 10756 10758 10760 10761 10762 10763 10764 10765
10504 10517 10531 10541 10553 10574 10592 10592 10590 10601 10612 10620 10634 10649 10654 10653 10653 10652 10652 10652 10655 10658 10661 10665 10669 10672 10675 10679 10684 10690 10696 10702 10707 10711 10713 10716 10718 10719 10721 10722 10724 10725 10727 10729 10731 10733 10736 10738 10739 10739 10740 10741 10742 10743 10744 10746 10748 10750 10752 10754 10755 10756 10757
10494 10508 10521 10531 10541 10559 10578 10583 10582 10589 10600 10610 10621 10633 10638 10639 10640 10639 10639 10642 10644 10648 10652 10655 10658 10662 10666 10670 10676 10682 10688 10694 10698 10702 10705 10708 10710 10711 10712 10714 10715 10717 10719 10721 10723 10725 10728 10729 10730 10731 10731 10732 10734 10735 10735 10737 10739 10741 10743 10745 10746 10747 10749
10483 10498 10512 10523 10533 10545 10559 10569 10574 10580 10589 10601 10610 10616 10620 10624 10626 10627 10629 10632 10635 10639 10644 10647 10650 10655 10659 10663 10669 10675 10680 10685 10689 10692 10696 10699 10700 10702 10704 10706 10708 10710 10712 10714 10716 10718 10719 10720 10721 10721 10722 10724 10726 10728 10729 10731 10732 10733 10734 10736 10737 10738 10740